Content
SEND FEEDBACK

Daily
Averages
Monthly
Summary
Germany

NEUBURG, GERMANY


Home > Europe > Germany
Elevation: 1248 feet     Latitude: 48 42N     Longitude: 011 12E

WEATHER
 
SELECT A DAY
Number of Records: 169,439;   Date Range: 2/20/97 - 8/20/14
 
SHARE

PRINT THIS DATA

[ ← Previous Day ]
WEATHER ALMANAC - JANUARY 23, 2013
[ Next Day → ]
[ °C ]   °F
Weather ElementAverageHighLow
Temperature30.4 °F35.6 °F (11:38 am)24.8 °F (10:20 pm)
Dewpoint28.5 °F32 °F (1:20 am)23 °F (10:20 pm)
Humidity93.3 %100 % (1:20 am)75 % (11:38 am)
Barometer29.69 in29.71 in (9:13 am)29.68 in (1:20 am)
Wind Speed1.2 mph3.5 mph (4:37 am)
Weather ElementAverage
Visibility2.3 mi
Wind DirectionE (87.8 °)

Weather ElementTotal
Precipitation---
Heating Degree Days34.8 (Base 65)
Averaged from 36 records on January 23, 2013
WEATHER CONDITIONS BREAKOUT
WIND DIRECTION BREAKOUT
WEATHER BY HOUR - JANUARY 23, 2013
[ °C ]   °F
Local TimeTemperatureDewpointHumidityBarometerVisibilityWind DirectionWind SpeedGust SpeedPrecipitationEventsConditions
1:20 AM32.0 °F32.0 °F100 %29.68 in1.9 miESE (120°)2.3 mphMostly Cloudy
2:20 AM32.0 °F32.0 °F100 %29.68 in1.0 miNNE (30°)1.2 mphOvercast
3:20 AM32.0 °F32.0 °F100 %29.68 in1.6 miCalmOvercast
4:20 AM32.0 °F32.0 °F100 %29.68 in1.0 miCalmOvercast
4:37 AM32.0 °F32.0 °F100 %29.68 in0.4 miSSW (200°)3.5 mphFogLight Freezing Fog
5:02 AM32.0 °F32.0 °F100 %29.68 in0.6 miSSW (210°)2.3 mphOvercast
5:20 AM32.0 °F32.0 °F100 %29.68 in0.8 miSouth (190°)2.3 mphOvercast
5:38 AM30.2 °F30.2 °F100 %29.68 in1.1 miCalmOvercast
6:20 AM30.2 °F28.4 °F93 %29.68 in1.7 miSSE (160°)2.3 mphOvercast
7:06 AM30.2 °F30.2 °F100 %29.68 in0.4 miSE (130°)1.2 mphFogLight Freezing Fog
7:12 AM30.2 °F30.2 °F100 %29.68 in0.2 miSSE (150°)2.3 mphFogLight Freezing Fog
7:20 AM30.2 °F30.2 °F100 %29.68 in0.2 miSE (130°)2.3 mphFogLight Freezing Fog
7:49 AM30.2 °F30.2 °F100 %29.68 in0.2 miSE (130°)1.2 mphFogLight Freezing Fog
8:03 AM30.2 °F30.2 °F100 %29.68 in0.3 miCalmFogLight Freezing Fog
8:20 AM28.4 °F28.4 °F100 %29.68 in0.2 miCalmFogLight Freezing Fog
8:47 AM28.4 °F28.4 °F100 %29.68 in0.8 miCalmFogMostly Cloudy
9:13 AM28.4 °F26.6 °F93 %29.71 in1.1 miCalmFogMostly Cloudy
9:20 AM28.4 °F28.4 °F100 %29.71 in1.2 miCalmFogFog
10:20 AM30.2 °F28.4 °F93 %29.71 inCalmFogFog
10:30 AM30.2 °F28.4 °F93 %29.71 inCalmFogFog
11:20 AM32.0 °F28.4 °F87 %29.71 in2.8 miCalmMostly Cloudy
11:38 AM35.6 °F28.4 °F75 %29.71 in3.1 miCalmHaze
12:20 PM33.8 °F28.4 °F81 %29.68 in4.3 miSouth (170°)2.3 mphPartly Cloudy
12:59 PM33.8 °F28.4 °F81 %29.68 in5.0 miSSE (150°)3.5 mphPartly Cloudy
1:20 PM35.6 °F28.4 °F75 %29.68 in5.6 miSE (130°)1.2 mphPartly Cloudy
2:20 PM35.6 °F28.4 °F75 %29.68 in6.2 miSSW (210°)1.2 mphPartly Cloudy
3:20 PM33.8 °F26.6 °F75 %29.68 in6.2 miSSW (210°)3.5 mphPartly Cloudy
4:20 PM32.0 °F26.6 °F80 %29.68 in6.2 miSSW (210°)2.3 mphPartly Cloudy
5:20 PM26.6 °F24.8 °F93 %29.71 in4.3 miWSW (240°)2.3 mphFogFog
6:20 PM28.4 °F26.6 °F93 %29.71 in3.7 miSW (230°)2.3 mphMostly Cloudy
7:20 PM28.4 °F26.6 °F93 %29.71 in3.1 miCalmMostly Cloudy
8:20 PM26.6 °F24.8 °F93 %29.71 in2.8 miCalmMostly Cloudy
9:20 PM26.6 °F26.6 °F100 %29.71 in2.8 miCalmMostly Cloudy
10:20 PM24.8 °F23.0 °F93 %29.71 in2.5 miVariable1.2 mphMostly Cloudy
11:06 PM24.8 °F23.0 °F93 %29.71 in2.5 miSSE (160°)2.3 mphMostly Cloudy
11:20 PM24.8 °F24.8 °F100 %29.71 in2.5 miCalmMostly Cloudy
Hourly data recorded from ETSN, located miles away from Neuburg, Germany







STORIES FROM OUR PARTNERS